Location: *
(6.0000°S, 32.3997°W)
Time: 19:30:38
(UTC+00:00)

Cosmos 1536 Rocket - Pass Details

Date: 01 April 2020
Orbit: 605 x 633 km, 82.5° (Epoch: 28 May)

Event Time Altitude Azimuth Distance (km) Brightness Sun altitude
Rises 20:27:43 0° 352° (N) 2,852 7.1 -4.1°
Reaches altitude 10° 20:29:56 10° 350° (N) 1,949 6.3 -4.7°
Maximum altitude 20:34:13 70° 266° (W) 647 3.9 -5.7°
Drops below altitude 10° 20:38:31 10° 182° (S) 1,956 6.1 -6.8°
Sets 20:40:44 0° 180° (S) 2,862 6.9 -7.3°
